Satellite-Ground Cal/Val Site Overpasses Predictions

Prediction of Satellite NPP Overpassing Cal/Val Site: Antarctic Dome C

Ground Cal/Val Site Location: Latitude: -75.10, Longitude: 123.35; Satellite-Ground Site NADIR distance within 100 km.

Table of predicted overpasses for the next 14.0 days since TLE Epoch: 12/17/2023
Interval Starting Time Ending Time Minimum Distance Time Minimum Distance (km)
1 12/17/2023 14:36:35 12/17/2023 14:36:49 12/17/2023 14:36:42 86.83
2 12/18/2023 07:38:05 12/18/2023 07:38:33 12/18/2023 07:38:19 35.74
3 12/19/2023 07:19:19 12/19/2023 07:19:39 12/19/2023 07:19:29 74.40
4 12/21/2023 15:01:31 12/21/2023 15:01:55 12/21/2023 15:01:43 56.87
5 12/22/2023 14:42:40 12/22/2023 14:43:05 12/22/2023 14:42:52 52.34
6 12/23/2023 07:44:20 12/23/2023 07:44:41 12/23/2023 07:44:31 70.62
7 12/24/2023 07:25:26 12/24/2023 07:25:53 12/24/2023 07:25:40 37.50
8 12/26/2023 15:07:49 12/26/2023 15:07:59 12/26/2023 15:07:54 94.09
9 12/27/2023 14:48:49 12/27/2023 14:49:18 12/27/2023 14:49:03 17.34
